Location: Kosice
(0.0000°N, 21.2500°E)
Time: 18:10:54
(UTC+02:00)

Daily predictions for brighter satellites

Satellite Brightness Start Highest point End
(mag) Time Altitude Azimuth Time Altitude Azimuth Time Altitude Azimuth
Centaur D-1AR AC-48 4.3 17:48:58 10° WSW 17:55:07 75° SSE 19:11:50 10° ENE
ARIANE 5 R/B 4.1 18:02:07 10° W 18:05:53 76° S 18:31:13 10° E
ISS -0.9 18:49:31 10° W 18:51:52 18° NW 18:54:11 10° N
Ariane 42P Rocket 2.4 18:50:54 10° WNW 18:53:22 34° N 18:55:29 10° ENE
ARIANE 3 DEB 3.1 18:51:28 10° W 18:58:29 81° S 19:01:38 11° E
BREEZE M DEB (TANK) 4.4 19:01:23 10° SSW 19:09:44 30° SE 19:12:19 15° E
Tsikada Rocket 4.0 19:08:53 10° S 19:14:56 59° E 19:20:56 10° NNE
Ariane Rocket 2.9 19:12:14 10° SSE 19:17:18 86° ENE 19:22:21 10° N
Cosmos 1850 Rocket 4.0 19:13:11 10° NNW 19:18:20 86° W 19:23:33 10° S
BREEZE-M (TANK) 1.4 19:15:38 10° SW 19:18:32 85° NW 19:20:18 14° NE
USA 229 DEB 3.6 19:12:12 10° SSW 19:18:48 66° ESE 19:25:20 10° NNE
USA 229 3.6 19:12:18 10° SSW 19:18:54 65° ESE 19:25:26 10° NNE
Cosmos 1741 Rocket 4.0 19:14:30 10° NNW 19:19:48 88° W 19:25:07 10° SSE
NOSS 3-1 (A) 4.5 19:16:46 10° SSE 19:20:18 17° ESE 19:20:53 17° ESE
Cosmos 371 Rocket 4.1 19:18:04 10° SSE 19:22:16 29° ESE 19:26:28 10° NE
Cosmos 1656 4.4 19:19:44 10° NNE 19:24:29 29° ENE 19:28:03 16° SE
Shenzhou-11 Module 4.3 19:22:34 10° W 19:24:54 21° SW 19:27:14 10° S
Centaur Rocket 3.5 19:23:35 10° W 19:26:50 28° NNW 19:27:58 18° NNE
Cosmos 1842 3.1 19:23:53 10° N 19:27:46 86° E 19:31:41 10° S
DELTA 2 R/B (1) 3.5 19:23:49 10° SW 19:29:22 78° SE 19:33:30 18° NE
Cosmos 2034 Rocket 4.4 19:23:46 10° NNE 19:29:27 37° E 19:35:11 10° SSE
GPS 2-14 Rocket1 3.2 19:28:20 10° W 19:32:20 55° NNW 19:34:27 25° NE
Cosmos 1697 Rocket 4.1 19:29:24 10° NNE 19:32:00 18° ENE 19:32:00 18° ENE
YAOGAN 1 3.4 19:29:24 10° S 19:33:36 51° WSW 19:37:47 10° NNW
Yuri Rocket 3.4 19:27:51 10° WSW 19:34:00 89° SSE 19:36:42 26° ENE
Fermi 3.7 19:33:03 10° WNW 19:37:05 69° NNE 19:38:25 40° E
ASC 2 Rocket 4.5 19:32:49 10° NW 19:38:38 54° NNE 19:43:09 27° E
NOSS 3-1 (C) 3.1 19:37:13 10° S 19:42:33 55° ESE 19:45:49 23° NE
GP-B 4.1 19:40:01 10° NNE 19:46:53 19° SSE 19:48:18 10° SSE
BLOCK DM-SL R/B 3.5 19:47:30 10° W 19:48:06 19° W 19:48:06 19° W
Cosmos 1891 Rocket 4.5 19:43:34 10° N 19:50:02 84° E 19:56:28 10° S
Cosmos 1464 Rocket 4.1 19:50:14 10° N 19:56:27 75° W 20:02:38 10° S
SL-8 R/B 3.8 19:58:19 10° NNW 20:02:36 56° NNE 20:02:36 56° NNE
Cosmos 1378 3.7 20:03:45 10° NNW 20:07:08 56° WNW 20:07:08 56° WNW
Cosmos 1315 Rocket 3.8 20:08:02 10° NNW 20:11:59 46° W 20:15:58 10° S
Ariane H10+ 3.9 20:16:14 10° W 20:18:16 28° W 20:18:16 28° W
BLOCK DM-SL R/B 3.7 20:15:55 10° W 20:20:43 81° S 20:22:01 60° ESE
Envisat 3.3 20:16:35 12° S 20:21:14 65° WSW 20:26:14 10° NNW
CZ-4C R/B 3.9 20:17:28 10° NW 20:25:20 50° WSW 20:33:05 10° S
Cosmos 2278 4.4 20:37:41 10° NNW 20:42:28 49° W 20:42:28 49° W
ARIANE 5 R/B 4.2 20:43:35 10° W 20:48:55 27° WNW 20:48:55 27° WNW
ARIANE 5 R/B 4.2 21:00:27 10° WNW 21:44:35 - E 21:01:24 20° WNW
